Location: Unspecified
(0.0000°N, 0.0000°E)
Time: 17:59:06
(UTC+00:00)

STARLINK 1067 - Pass Details

Date: 15 January 2020
Orbit: 548 x 551 km, 53.0° (Epoch: 17 January)

Event Time Altitude Azimuth Distance (km) Brightness Sun altitude
Rises 19:30:29 0° 317° (NW) 2,701 7.4 -18.9°
Reaches altitude 10° 19:32:45 10° 311° (NW) 1,811 6.6 -19.4°
Maximum altitude 19:36:44 49° 236° (SW) 712 4.5 -20.3°
Drops below altitude 10° 19:40:44 10° 161° (SSE) 1,819 6.3 -21.2°
Sets 19:43:01 0° 155° (SSE) 2,715 7.1 -21.8°
